DAL1094 KFLL-KATL

Flight info

Callsign DAL1094
Flight time N/A
Altitude 36000
Route FRSBE2 STYMY Q77 MJAMS/N0443F370 Q77 SHRKS/N0442F360 LAIRI LARZZ JJEDI4
Aircraft B752/M-SDE3FGHIM3RWXY/LB1

Departure

Time 2026-05-03 22:41
Airport Fort Lauderdale Hollywood International Airport (KFLL)

Arrival

Time N/A
Airport Hartsfield Jackson Atlanta International Airport (KATL)
Time Latitude Longitude Altitude Speed Heading
2026-05-03 21:19 26.07347 -80.14599 13 ft 0 kts 208°
2026-05-03 21:41 26.07360 -80.14591 12 ft 2 kts 208°
2026-05-03 21:41 26.07373 -80.14584 12 ft 2 kts 211°
2026-05-03 21:41 26.07383 -80.14571 12 ft 2 kts 250°
2026-05-03 21:42 26.07385 -80.14554 12 ft 2 kts 279°
2026-05-03 21:42 26.07383 -80.14537 12 ft 2 kts 275°
2026-05-03 21:42 26.07382 -80.14521 12 ft 2 kts 274°
2026-05-03 21:42 26.07377 -80.14505 12 ft 2 kts 308°
2026-05-03 21:43 26.07366 -80.14494 12 ft 2 kts 335°
2026-05-03 21:43 26.07354 -80.14490 12 ft 0 kts 358°
2026-05-03 21:43 26.07348 -80.14490 12 ft 1 kts
2026-05-03 21:43 26.07347 -80.14490 12 ft 0 kts
2026-05-03 21:45 26.07361 -80.14490 12 ft 6 kts
2026-05-03 21:45 26.07416 -80.14490 12 ft 5 kts
2026-05-03 21:45 26.07421 -80.14490 12 ft 0 kts
2026-05-03 21:46 26.07427 -80.14490 12 ft 3 kts
2026-05-03 21:47 26.07462 -80.14492 12 ft 5 kts 344°
2026-05-03 21:47 26.07484 -80.14524 12 ft 5 kts 281°
2026-05-03 21:47 26.07488 -80.14565 12 ft 1 kts 271°
2026-05-03 21:47 26.07488 -80.14569 12 ft 1 kts 271°
2026-05-03 21:48 26.07488 -80.14594 12 ft 5 kts 271°
2026-05-03 21:48 26.07489 -80.14649 12 ft 7 kts 271°
2026-05-03 21:48 26.07489 -80.14690 12 ft 0 kts 271°
2026-05-03 21:52 26.07489 -80.14697 13 ft 4 kts 271°
2026-05-03 21:52 26.07489 -80.14766 12 ft 12 kts 267°
2026-05-03 21:52 26.07489 -80.14887 12 ft 16 kts 270°
2026-05-03 21:52 26.07489 -80.15011 12 ft 16 kts 270°
2026-05-03 21:53 26.07490 -80.15167 12 ft 24 kts 270°
2026-05-03 21:53 26.07491 -80.15366 12 ft 24 kts 271°
2026-05-03 21:53 26.07492 -80.15549 12 ft 23 kts 271°
2026-05-03 21:53 26.07493 -80.15704 12 ft 16 kts 270°
2026-05-03 21:54 26.07493 -80.15822 12 ft 14 kts 270°
2026-05-03 21:54 26.07494 -80.15891 12 ft 2 kts 270°
2026-05-03 21:54 26.07494 -80.15919 12 ft 4 kts 270°
2026-05-03 21:54 26.07494 -80.15957 12 ft 5 kts 271°
2026-05-03 21:55 26.07494 -80.15997 12 ft 5 kts 270°
2026-05-03 21:55 26.07494 -80.16012 12 ft 0 kts 270°
2026-05-03 21:55 26.07494 -80.16013 12 ft 0 kts 270°
2026-05-03 21:56 26.07494 -80.16028 12 ft 3 kts 270°
2026-05-03 21:56 26.07495 -80.16059 12 ft 4 kts 270°
2026-05-03 21:56 26.07495 -80.16110 12 ft 8 kts 270°
2026-05-03 21:56 26.07495 -80.16154 12 ft 0 kts 270°
2026-05-03 22:03 26.07495 -80.16162 12 ft 4 kts 271°
2026-05-03 22:03 26.07495 -80.16200 12 ft 0 kts 270°
2026-05-03 22:03 26.07495 -80.16201 12 ft 0 kts 270°
2026-05-03 22:08 26.07495 -80.16215 12 ft 5 kts 270°
2026-05-03 22:08 26.07496 -80.16234 12 ft 0 kts 271°
2026-05-03 22:10 26.07496 -80.16240 12 ft 2 kts 271°
2026-05-03 22:10 26.07496 -80.16265 12 ft 4 kts 270°
2026-05-03 22:10 26.07496 -80.16301 12 ft 4 kts 270°
2026-05-03 22:11 26.07496 -80.16327 12 ft 0 kts 270°
2026-05-03 22:18 26.07496 -80.16331 12 ft 1 kts 270°
2026-05-03 22:18 26.07496 -80.16356 12 ft 4 kts 270°
2026-05-03 22:18 26.07496 -80.16375 12 ft 0 kts 269°
2026-05-03 22:19 26.07496 -80.16380 12 ft 0 kts 270°
2026-05-03 22:19 26.07496 -80.16394 12 ft 3 kts 270°
2026-05-03 22:20 26.07496 -80.16419 12 ft 4 kts 270°
2026-05-03 22:20 26.07496 -80.16438 12 ft 0 kts 270°
2026-05-03 22:20 26.07496 -80.16446 12 ft 0 kts 270°
2026-05-03 22:23 26.07496 -80.16454 12 ft 2 kts 271°
2026-05-03 22:23 26.07497 -80.16482 12 ft 3 kts 270°
2026-05-03 22:23 26.07497 -80.16492 12 ft 0 kts 271°
2026-05-03 22:24 26.07497 -80.16494 12 ft 1 kts 271°
2026-05-03 22:24 26.07497 -80.16503 12 ft 0 kts 271°
2026-05-03 22:24 26.07497 -80.16512 12 ft 2 kts 271°
2026-05-03 22:24 26.07497 -80.16541 12 ft 4 kts 270°
2026-05-03 22:25 26.07497 -80.16547 12 ft 0 kts 270°
2026-05-03 22:30 26.07497 -80.16548 12 ft 0 kts 270°
2026-05-03 22:30 26.07497 -80.16563 12 ft 3 kts 270°
2026-05-03 22:31 26.07497 -80.16581 12 ft 0 kts 271°
2026-05-03 22:32 26.07498 -80.16587 12 ft 2 kts 272°
2026-05-03 22:33 26.07502 -80.16612 12 ft 4 kts 292°
2026-05-03 22:33 26.07504 -80.16616 12 ft 0 kts 297°
2026-05-03 22:37 26.07505 -80.16618 12 ft 1 kts 297°
2026-05-03 22:37 26.07516 -80.16633 12 ft 3 kts 322°
2026-05-03 22:37 26.07541 -80.16640 12 ft 4 kts 353°
2026-05-03 22:37 26.07574 -80.16643 12 ft 4 kts 358°
2026-05-03 22:38 26.07577 -80.16643 12 ft 0 kts 358°
2026-05-03 22:38 26.07584 -80.16644 12 ft 2 kts 359°
2026-05-03 22:38 26.07609 -80.16644 12 ft 4 kts 360°
2026-05-03 22:39 26.07642 -80.16644 12 ft 5 kts
2026-05-03 22:39 26.07677 -80.16643 12 ft 4 kts
2026-05-03 22:39 26.07694 -80.16635 12 ft 1 kts 56°
2026-05-03 22:39 26.07695 -80.16627 12 ft 1 kts 86°
2026-05-03 22:40 26.07695 -80.16623 12 ft 0 kts 90°
2026-05-03 22:40 26.07695 -80.16621 12 ft 0 kts 90°
2026-05-03 22:40 26.07695 -80.16573 13 ft 25 kts 90°
2026-05-03 22:41 26.07692 -80.16108 13 ft 95 kts 90°
2026-05-03 22:41 26.07686 -80.15128 14 ft 157 kts 89°
2026-05-03 22:41 26.07673 -80.13778 444 ft 183 kts 90°
2026-05-03 22:41 26.07647 -80.12334 1393 ft 186 kts 89°
2026-05-03 22:42 26.07633 -80.10858 1642 ft 199 kts 86°
2026-05-03 22:42 26.07990 -80.09317 1766 ft 218 kts 66°
2026-05-03 22:42 26.08696 -80.07798 2064 ft 230 kts 50°
2026-05-03 22:42 26.10024 -80.06747 2488 ft 237 kts 22°
2026-05-03 22:43 26.11573 -80.06113 2979 ft 244 kts 20°
2026-05-03 22:43 26.13220 -80.05460 3154 ft 264 kts 19°
2026-05-03 22:43 26.15015 -80.05038 3723 ft 267 kts 358°
2026-05-03 22:43 26.16855 -80.05361 3854 ft 267 kts 345°
2026-05-03 22:44 26.18616 -80.05928 4077 ft 265 kts 342°
2026-05-03 22:44 26.20418 -80.06563 4127 ft 268 kts 341°
2026-05-03 22:44 26.22003 -80.07602 4228 ft 269 kts 313°
2026-05-03 22:44 26.22989 -80.09335 4886 ft 267 kts 295°
2026-05-03 22:45 26.23745 -80.11237 5436 ft 271 kts 292°
2026-05-03 22:45 26.24465 -80.13143 6067 ft 273 kts 291°
2026-05-03 22:45 26.25203 -80.15144 6557 ft 279 kts 292°
2026-05-03 22:45 26.26162 -80.16994 7242 ft 279 kts 300°
2026-05-03 22:46 26.27186 -80.18839 7850 ft 281 kts 300°
2026-05-03 22:46 26.28202 -80.20654 8562 ft 278 kts 300°
2026-05-03 22:46 26.29153 -80.22355 9047 ft 283 kts 300°
2026-05-03 22:46 26.30257 -80.24313 9722 ft 283 kts 300°
2026-05-03 22:47 26.31306 -80.26168 10331 ft 284 kts 299°
2026-05-03 22:47 26.32387 -80.28082 10526 ft 301 kts 299°
2026-05-03 22:47 26.33540 -80.30122 10541 ft 323 kts 299°
2026-05-03 22:47 26.34763 -80.32280 10892 ft 333 kts 299°
2026-05-03 22:48 26.36002 -80.34461 11626 ft 331 kts 299°
2026-05-03 22:48 26.37236 -80.36639 12165 ft 334 kts 299°
2026-05-03 22:48 26.38473 -80.38823 12748 ft 335 kts 298°
2026-05-03 22:48 26.39715 -80.41017 13294 ft 337 kts 298°
2026-05-03 22:49 26.40953 -80.43206 13861 ft 337 kts 298°
2026-05-03 22:49 26.42170 -80.45359 14349 ft 340 kts 298°
2026-05-03 22:49 26.43565 -80.47531 14882 ft 346 kts 309°
2026-05-03 22:49 26.45437 -80.49236 15347 ft 357 kts 324°
2026-05-03 22:50 26.47734 -80.50320 15803 ft 368 kts 340°
2026-05-03 22:50 26.50297 -80.50730 16265 ft 376 kts 349°
2026-05-03 22:50 26.52885 -80.51181 16688 ft 374 kts 341°
2026-05-03 22:50 26.55380 -80.51935 17131 ft 373 kts 337°
2026-05-03 22:51 26.57855 -80.52839 17580 ft 373 kts 335°
2026-05-03 22:51 26.60286 -80.53810 17984 ft 375 kts 334°
2026-05-03 22:51 26.62736 -80.54844 18409 ft 377 kts 333°
2026-05-03 22:51 26.65109 -80.55874 18818 ft 378 kts 332°
2026-05-03 22:52 26.67516 -80.56938 19217 ft 380 kts 332°
2026-05-03 22:52 26.69977 -80.58037 19631 ft 382 kts 332°
2026-05-03 22:52 26.72450 -80.59147 20034 ft 384 kts 332°
2026-05-03 22:52 26.74968 -80.60159 20436 ft 392 kts 339°
2026-05-03 22:53 26.77696 -80.60620 20819 ft 402 kts 348°
2026-05-03 22:53 26.79848 -80.60830 21118 ft 404 kts 348°
2026-05-03 22:53 26.82653 -80.61105 21502 ft 407 kts 348°
2026-05-03 22:53 26.85462 -80.61377 21876 ft 409 kts 348°
2026-05-03 22:54 26.88281 -80.61648 22245 ft 411 kts 348°
2026-05-03 22:54 26.91093 -80.62084 22606 ft 407 kts 340°
2026-05-03 22:54 26.93746 -80.63047 22964 ft 399 kts 329°
2026-05-03 22:54 26.96157 -80.64513 23323 ft 393 kts 321°
2026-05-03 22:55 26.98500 -80.66090 23705 ft 397 kts 324°
2026-05-03 22:55 27.00957 -80.67520 24042 ft 403 kts 326°
2026-05-03 22:55 27.03495 -80.68882 24402 ft 406 kts 327°
2026-05-03 22:55 27.06051 -80.70193 24735 ft 409 kts 328°
2026-05-03 22:56 27.08673 -80.71500 25082 ft 412 kts 328°
2026-05-03 22:56 27.11294 -80.72782 25440 ft 414 kts 328°
2026-05-03 22:56 27.13954 -80.74071 25739 ft 417 kts 328°
2026-05-03 22:56 27.16626 -80.75358 26069 ft 419 kts 329°
2026-05-03 22:57 27.19318 -80.76650 26407 ft 421 kts 328°
2026-05-03 22:57 27.22012 -80.77941 26720 ft 423 kts 328°
2026-05-03 22:57 27.24714 -80.79234 27051 ft 425 kts 328°
2026-05-03 22:57 27.27346 -80.80495 27350 ft 427 kts 328°
2026-05-03 22:58 27.30083 -80.81805 27612 ft 430 kts 328°
2026-05-03 22:58 27.32851 -80.83131 27940 ft 431 kts 328°
2026-05-03 22:58 27.35587 -80.84441 28241 ft 433 kts 328°
2026-05-03 22:58 27.38371 -80.85776 28535 ft 435 kts 328°
2026-05-03 22:59 27.41140 -80.87103 28833 ft 437 kts 328°
2026-05-03 22:59 27.43966 -80.88459 29120 ft 438 kts 328°
2026-05-03 22:59 27.46746 -80.89795 29344 ft 442 kts 328°
2026-05-03 22:59 27.49562 -80.91146 29655 ft 443 kts 328°
2026-05-03 23:00 27.52391 -80.92506 29923 ft 445 kts 328°
2026-05-03 23:00 27.55244 -80.93878 30196 ft 446 kts 328°
2026-05-03 23:00 27.58073 -80.95239 30473 ft 448 kts 327°
2026-05-03 23:00 27.60943 -80.96619 30745 ft 450 kts 327°
2026-05-03 23:01 27.63812 -80.98001 31019 ft 451 kts 327°
2026-05-03 23:01 27.66696 -80.99391 31292 ft 453 kts 327°
2026-05-03 23:01 27.69577 -81.00781 31561 ft 454 kts 327°
2026-05-03 23:01 27.72510 -81.02196 31838 ft 456 kts 327°
2026-05-03 23:02 27.75400 -81.03590 32178 ft 456 kts 326°
2026-05-03 23:02 27.78295 -81.04986 32607 ft 454 kts 326°
2026-05-03 23:02 27.81202 -81.06390 33022 ft 452 kts 326°
2026-05-03 23:02 27.84017 -81.07751 33425 ft 451 kts 325°
2026-05-03 23:03 27.86869 -81.09130 33840 ft 449 kts 325°
2026-05-03 23:03 27.89725 -81.10512 34267 ft 447 kts 324°
2026-05-03 23:03 27.92585 -81.11900 34647 ft 446 kts 324°
2026-05-03 23:03 27.95406 -81.13268 35020 ft 445 kts 324°
2026-05-03 23:04 27.98272 -81.14658 35406 ft 444 kts 324°
2026-05-03 23:04 28.01111 -81.16035 35778 ft 443 kts 324°
2026-05-03 23:04 28.03921 -81.17399 36062 ft 442 kts 324°
2026-05-03 23:05 28.09576 -81.20149 36063 ft 442 kts 324°
2026-05-03 23:05 28.15140 -81.22857 36055 ft 441 kts 324°
2026-05-03 23:06 28.20796 -81.25613 36059 ft 441 kts 324°
2026-05-03 23:06 28.26371 -81.28332 36065 ft 441 kts 324°
2026-05-03 23:07 28.31927 -81.31044 36071 ft 441 kts 324°
2026-05-03 23:07 28.37554 -81.33795 36073 ft 441 kts 324°
2026-05-03 23:08 28.43175 -81.36546 36073 ft 441 kts 324°
2026-05-03 23:08 28.48779 -81.39291 36073 ft 441 kts 324°
2026-05-03 23:09 28.54393 -81.42045 36073 ft 441 kts 324°
2026-05-03 23:09 28.60044 -81.44820 36073 ft 441 kts 324°
2026-05-03 23:10 28.65594 -81.47548 36073 ft 441 kts 324°
2026-05-03 23:10 28.71185 -81.50299 36079 ft 441 kts 323°
2026-05-03 23:11 28.76793 -81.53063 36085 ft 441 kts 323°
2026-05-03 23:11 28.82396 -81.55828 36091 ft 441 kts 323°
2026-05-03 23:12 28.87956 -81.58574 36091 ft 441 kts 323°
2026-05-03 23:12 28.93810 -81.60881 36099 ft 463 kts 337°
2026-05-03 23:12 28.97063 -81.61333 36099 ft 476 kts 343°
2026-05-03 23:13 29.00290 -81.61614 36091 ft 476 kts 343°